www.pogodaiklimat.ru

Погода и климат >> Архив погоды >> Швейцария >> Цюрих


АРХИВ ПОГОДЫ в Цюрихе

Время (UTC), дата Ветер
(напр.,м/с)
 
Видим.   Явления Облачность Т
(С)
Тd
(С)
f
(%)
Тe
(С)
Тes
(С)
Комфортность P
(гПа)
Po
(гПа)
Тmin
(С)
Tmax
(С)
R
(мм)
R24
(мм)
S
(см)
03 17.03 Ю 2
{6}
н/о н/о +8.1 -1.1 52 +7 +7 тепло 1009.7 944.2
04 17.03 ЮЗ 3
{12}
н/о н/о +8.1 -1.6 50 +6 +6 тепло 1009.4 944.0
05 17.03 ЮЗ 3
{8}
н/о н/о +8.0 -2.1 49 +6 +6 тепло 1009.0 943.6
06 17.03 ЮЗ 6
{16}
н/о н/о +9.6 -2.3 43 +7 +7 тепло 1008.4 943.4 +7.5
07 17.03 ЮЗ 2
{10}
н/о н/о +9.4 -2.4 43 +9 +9 тепло 1008.6 943.5
08 17.03 ЮЗ 2
{5}
н/о н/о +10.4 -1.9 42 +9 +9 тепло 1008.3 943.5
09 17.03 ЮЗ 2
{10}
н/о н/о +10.7 -1.6 42 +10 +10 тепло 1008.4 943.6
10 17.03 З 2
{4}
н/о н/о +12.4 -1.6 38 +12 +12 тепло 1007.3 943.0
11 17.03 З 3
{6}
н/о н/о +14.9 +0.3 37 +14 +14 тепло 1006.5 942.8
12 17.03 З 4
{10}
н/о н/о +13.5 -0.2 39 +12 +16 тепло 1006.7 942.7
13 17.03 ЮЗ 5
{9}
н/о н/о +14.0 0.0 38 +13 +13 тепло 1006.4 942.5
14 17.03 ЮЗ 8
{16}
н/о н/о +14.0 -1.1 35 +12 +12 тепло 1006.5 942.6
15 17.03 СЗ 5
{16}
н/о н/о +11.1 +3.6 60 +9 +9 по сезону 1008.3 943.6
16 17.03 З 8
{20}
н/о н/о +4.9 +0.5 73 -1 -1 прохладно 1012.3 945.9
17 17.03 З 6
{16}
н/о н/о +3.6 +1.6 87 -2 -2 холодно 1014.0 947.2 0.4
18 17.03 ЮЗ 6
{20}
н/о н/о +3.3 +1.1 85 -2 -2 очень
холодно
1016.2 949.2 +15.4 1
19 17.03 ЮЗ 5
{13}
н/о н/о +3.1 +0.8 85 -2 -2 по сезону 1017.3 950.2 0.6
20 17.03 ЮЗ 6
{12}
н/о н/о +3.0 +0.6 84 -3 -3 прохладно 1018.2 951.0
21 17.03 ЮЗ 4
{13}
н/о н/о +2.8 -0.3 80 -2 -2 холодно 1018.5 951.2
22 17.03 ЮЗ 4
{9}
н/о н/о +2.9 -0.3 79 -1 -1 по сезону 1019.0 951.7
23 17.03 Ю 3
{6}
н/о н/о +2.6 -0.3 81 -1 -1 по сезону 1019.1 951.7
00 18.03 Ю 4
{13}
н/о н/о +2.8 -0.5 79 -2 -2 прохладно 1019.1 951.8
01 18.03 Ю 2
{5}
н/о н/о +2.9 0.0 81 +1 +1 по сезону 1018.9 951.6
02 18.03 ЮЗ 3
{5}
н/о н/о +3.3 -0.1 78 -0 -0 по сезону 1018.5 951.3
03 18.03 З 4
{8}
н/о н/о +2.9 -0.1 81 -2 -2 прохладно 1018.6 951.3
04 18.03 ЮЗ 3
{6}
н/о н/о +2.9 0.0 81 -1 -1 по сезону 1018.8 951.5
05 18.03 ЮЗ 5
{9}
н/о н/о +2.6 -0.2 82 -3 -3 по сезону 1019.2 951.8
06 18.03 З 4
{11}
н/о н/о +2.0 -0.1 86 -3 -3 прохладно 1020.4 952.8 +2.2
07 18.03 ЮЗ 3
{8}
н/о н/о +2.3 -0.7 81 -2 -2 по сезону 1021.5 953.9
08 18.03 З 5
{9}
н/о н/о +3.3 -1.5 71 -2 -2 прохладно 1021.9 954.5
09 18.03 З 5
{10}
н/о н/о +3.7 -2.6 63 -1 -1 прохладно 1022.3 955.0
10 18.03 З 5
{9}
н/о н/о +4.9 -3.4 55 +1 +1 по сезону 1022.3 955.3
11 18.03 З 5
{10}
н/о н/о +7.8 -2.0 50 +5 +5 по сезону 1021.7 955.4
12 18.03 З 3
{10}
н/о 9/0
[]
+5.7 -3.5 52 +3 +8 прохладно 1022.2 955.4
13 18.03 ЮЗ 2
{6}
н/о н/о +6.4 -2.0 55 +5 +5 по сезону 1021.6 955.0
14 18.03 Ю 5
{9}
н/о н/о +5.2 -0.8 65 +1 +1 прохладно 1022.0 955.1
15 18.03 Ю 4
{9}
н/о н/о +4.3 -0.6 70 0 0 холодно 1022.6 955.4
16 18.03 Ю 3
{6}
н/о н/о +4.4 -0.3 71 +1 +1 по сезону 1022.6 955.4
17 18.03 ЮВ 2
{11}
н/о н/о +1.2 -0.2 90 -2 -2 холодно 1024.4 956.3 2
18 18.03 ЮВ 2
{11}
н/о 4/0
[]
+1.7 +0.3 90 -1 -1 холодно 1024.6 956.6 +7.8
19 18.03 Ю 1
{2}
н/о н/о +1.8 +0.2 89 -0 -0 по сезону 1025.2 957.2 0.1
20 18.03 Ю 1
{2}
н/о н/о +2.0 +0.3 88 0 0 по сезону 1025.5 957.6
21 18.03 Ю 1
{2}
н/о н/о +2.1 -0.1 85 0 0 прохладно 1025.8 957.9
22 18.03 ЮВ 1
{3}
н/о н/о +1.4 0.0 90 -1 -1 по сезону 1026.0 957.9
23 18.03 штиль 0
{2}
н/о н/о +0.9 0.0 94 -0 -0 по сезону 1026.4 958.1
00 19.03 штиль 0
{3}
н/о н/о +0.6 -0.1 95 -1 -1 прохладно 1026.3 958.0
01 19.03 СВ 1
{2}
н/о н/о +0.7 -0.3 93 0 0 по сезону 1026.3 958.0
02 19.03 СВ 1
{2}
н/о н/о +0.4 -0.3 95 -0 -0 по сезону 1026.1 957.7
03 19.03 СВ 2
{3}
н/о н/о -0.6 -1.2 96 -4 -4 холодно 1026.6 957.9
04 19.03 Ю 1
{3}
н/о н/о -0.7 -1.2 96 -3 -3 по сезону 1026.8 958.1
05 19.03 В 1
{2}
н/о н/о +0.4 -0.5 94 -0 -0 по сезону 1026.7 958.3
06 19.03 В 1
{3}
н/о н/о +0.2 -0.8 93 -2 -2 прохладно 1027.3 958.8 -0.7
07 19.03 Ю 1
{2}
н/о н/о 0.0 -0.4 97 -2 -2 по сезону 1028.1 959.5
08 19.03 Ю 1
{2}
н/о н/о 0.0 0.0 100 -1 -1 прохладно 1028.5 959.9
09 19.03 З 1
{2}
н/о н/о +1.3 +0.2 92 -1 -1 холодно 1028.6 960.3
10 19.03 С 2
{3}
н/о н/о +4.0 +0.5 78 +2 +2 по сезону 1028.0 960.4
11 19.03 СВ 2
{5}
н/о н/о +4.8 -0.2 70 +2 +2 прохладно 1027.9 960.5
12 19.03 СВ 3
{6}
н/о 5/0
[]
+6.1 -1.0 60 +4 +11 прохладно 1027.6 960.5
13 19.03 В 2
{6}
н/о н/о +6.8 -6.3 39 +5 +5 по сезону 1027.5 960.6
14 19.03 СВ 2
{7}
н/о н/о +7.1 -3.8 46 +6 +6 по сезону 1027.2 960.4
15 19.03 СВ 4
{8}
н/о н/о +7.1 -2.8 49 +4 +4 по сезону 1027.3 960.5
16 19.03 В 2
{7}
н/о н/о +7.5 -5.5 39 +6 +6 тепло 1027.6 960.8
17 19.03 СВ 2
{6}
н/о н/о +6.2 -4.3 47 +4 +4 по сезону 1028.5 961.4
18 19.03 СВ 1
{8}
н/о н/о +5.4 -3.9 51 +5 +5 по сезону 1029.5 962.1 +8.3
19 19.03 В 2
{4}
н/о н/о +4.0 -4.0 56 +2 +2 по сезону 1030.3 962.5
20 19.03 В 2
{4}
н/о н/о +3.8 -5.3 51 +2 +2 по сезону 1030.9 963.0
21 19.03 СВ 2
{4}
н/о н/о +2.2 -4.4 62 -1 -1 холодно 1031.7 963.4
22 19.03 СВ 2
{3}
н/о н/о +1.6 -4.4 64 -1 -1 по сезону 1032.2 963.7
23 19.03 СВ 2
{3}
н/о н/о +0.8 -4.1 70 -2 -2 прохладно 1032.9 964.2
00 20.03 СВ 2
{4}
н/о н/о +0.5 -4.0 72 -2 -2 холодно 1033.2 964.4
01 20.03 СВ 2
{3}
н/о н/о +0.3 -4.0 73 -3 -3 по сезону 1033.2 964.3
02 20.03 СВ 1
{3}
н/о н/о -0.3 -3.9 77 -2 -2 по сезону 1033.3 964.3
03 20.03 СВ 2
{3}
н/о н/о -0.7 -4.0 78 -4 -4 холодно 1033.4 964.3
04 20.03 СВ 2
{3}
н/о н/о -0.9 -3.8 81 -5 -5 по сезону 1033.5 964.3
05 20.03 СВ 2
{4}
н/о н/о -0.7 -3.8 80 -4 -4 прохладно 1033.7 964.5
06 20.03 СВ 3
{5}
н/о н/о -0.7 -3.6 81 -5 -5 холодно 1034.4 965.2 -1.2
07 20.03 СВ 3
{5}
н/о н/о +0.6 -2.4 80 -3 -3 прохладно 1034.6 965.7
08 20.03 СВ 3
{5}
н/о н/о +2.0 -2.8 70 -2 -2 холодно 1034.8 966.2
09 20.03 СВ 2
{5}
н/о н/о +4.5 -2.5 60 +2 +2 прохладно 1033.9 966.0
10 20.03 СВ 4
{8}
н/о н/о +6.8 -2.9 50 +4 +4 по сезону 1033.4 966.1
11 20.03 СВ 6
{11}
н/о н/о +7.7 -5.6 38 +4 +4 прохладно 1033.1 966.0
12 20.03 СВ 4
{11}
н/о 3/0
[]
+8.8 -4.8 38 +6 +12 по сезону 1032.7 965.9
13 20.03 СВ 4
{13}
н/о н/о +9.4 -4.3 38 +7 +7 по сезону 1032.1 965.5
14 20.03 СВ 5
{10}
н/о н/о +9.9 -4.9 35 +8 +8 по сезону 1031.7 965.2
15 20.03 СВ 4
{13}
н/о н/о +9.7 -5.6 33 +8 +8 по сезону 1031.5 965.0
16 20.03 СВ 5
{11}
н/о н/о +8.9 -5.5 36 +6 +6 по сезону 1031.5 964.8
17 20.03 СВ 3
{10}
н/о н/о +8.1 -4.5 41 +6 +6 по сезону 1032.1 965.2
18 20.03 СВ 2
{13}
н/о н/о +6.6 -4.6 45 +5 +5 по сезону 1033.2 965.9 +10.1
19 20.03 СВ 2
{4}
н/о н/о +4.8 -3.9 53 +3 +3 по сезону 1034.0 966.2
20 20.03 В 3
{5}
н/о н/о +4.7 -4.3 52 +2 +2 по сезону 1033.9 966.1
21 20.03 СВ 3
{5}
н/о н/о +4.1 -4.3 54 +1 +1 прохладно 1034.0 966.0
22 20.03 СВ 3
{6}
н/о н/о +4.3 -4.6 52 +1 +1 по сезону 1033.8 965.9
23 20.03 СВ 4
{7}
н/о н/о +3.5 -4.4 56 -0 -0 по сезону 1033.7 965.6
00 21.03 СВ 3
{7}
н/о н/о +2.8 -4.5 59 -0 -0 прохладно 1033.5 965.2
01 21.03 СВ 3
{6}
н/о н/о +2.2 -4.5 61 -1 -1 по сезону 1033.3 964.9
02 21.03 СВ 3
{6}
н/о н/о +1.6 -4.4 64 -2 -2 по сезону 1032.9 964.4
03 21.03 СВ 4
{8}
н/о н/о +1.3 -4.4 66 -3 -3 прохладно 1032.6 964.0
04 21.03 СВ 3
{7}
н/о н/о +0.7 -4.4 69 -3 -3 по сезону 1033.0 964.2
05 21.03 СВ 2
{6}
н/о н/о +0.5 -4.5 69 -3 -3 по сезону 1033.2 964.4
06 21.03 СВ 2
{8}
н/о н/о +0.3 -4.3 71 -3 -3 прохладно 1033.4 964.5 -0.5
07 21.03 СВ 4
{8}
н/о н/о +2.0 -4.1 64 -2 -2 по сезону 1032.9 964.5
08 21.03 СВ 3
{7}
н/о н/о +3.3 -3.7 60 -0 -0 по сезону 1032.9 964.8
09 21.03 СВ 2
{8}
н/о н/о +4.3 -3.7 56 +2 +2 по сезону 1033.0 965.1
10 21.03 СВ 3
{8}
н/о н/о +6.7 -3.2 49 +4 +4 по сезону 1032.4 965.1
11 21.03 В 3
{8}
н/о н/о +8.1 -2.0 49 +6 +6 по сезону 1031.8 964.9
12 21.03 СВ 4
{9}
н/о н/о +9.6 -2.9 41 +7 +14 по сезону 1031.2 964.7
13 21.03 В 3
{9}
н/о н/о +10.4 -3.4 38 +9 +9 тепло 1030.5 964.2
14 21.03 СВ 3
{7}
н/о н/о +11.2 -3.2 36 +10 +10 тепло 1029.7 963.7
15 21.03 В 3
{9}
н/о н/о +12.3 -2.6 35 +11 +11 тепло 1029.1 963.4
17 21.03 СВ 1
{5}
н/о н/о +11.6 -2.8 36 +12 +12 тепло 1029.5 963.6
18 21.03 штиль 0
{9}
н/о 1/0
[]
+8.8 -1.9 47 +9 +9 тепло 1030.7 964.0 +12.5
19 21.03 СВ 1
{1}
н/о н/о +7.4 -1.7 52 +7 +7 тепло 1031.3 964.3
21 21.03 СВ 2
{4}
н/о н/о +5.6 -1.8 59 +4 +4 по сезону 1031.8 964.3
22 21.03 В 1
{2}
н/о н/о +4.7 -1.5 64 +5 +5 тепло 1031.8 964.1
23 21.03 С 1
{1}
н/о н/о +4.2 -2.0 64 +4 +4 по сезону 1031.7 963.9
00 22.03 С 1
{4}
н/о н/о +3.6 -2.0 67 +4 +4 по сезону 1031.7 963.7
01 22.03 З 1
{1}
н/о н/о +3.1 -1.6 71 +3 +3 тепло 1031.7 963.6
02 22.03 штиль 0
{1}
н/о н/о +2.7 -1.2 75 +2 +2 по сезону 1031.8 963.6
03 22.03 СВ 1
{2}
н/о н/о +2.4 -1.4 76 +2 +2 по сезону 1031.8 963.5
04 22.03 штиль 0
{1}
н/о н/о +1.7 -1.2 81 +1 +1 тепло 1032.3 963.8
05 22.03 штиль 0
{1}
н/о н/о +2.2 -1.0 79 +1 +1 по сезону 1032.5 964.1
06 22.03 С 1
{2}
н/о н/о +1.5 -1.3 82 +1 +1 по сезону 1033.0 964.4 +1.5
07 22.03 Ю 1
{1}
н/о н/о +2.8 -0.9 77 +3 +3 по сезону 1032.7 964.5
08 22.03 ЮЗ 1
{2}
н/о н/о +4.9 -0.2 70 +4 +4 по сезону 1032.2 964.5
09 22.03 ЮЗ 1
{2}
н/о н/о +7.4 +0.3 61 +7 +7 по сезону 1031.6 964.6
10 22.03 Ю 2
{4}
н/о н/о +8.9 +0.2 54 +8 +8 тепло 1030.9 964.3
11 22.03 ЮЗ 2
{4}
н/о н/о +11.8 +1.2 48 +11 +11 тепло 1029.8 963.9
12 22.03 ЮЗ 2
{4}
н/о н/о +13.7 +1.2 43 +14 +14 тепло 1028.8 963.4
13 22.03 ЮЗ 2
{4}
н/о н/о +15.3 +1.2 38 +15 +15 тепло 1028.0 963.0
14 22.03 ЮЗ 2
{4}
н/о н/о +16.6 -0.4 31 +17 +17 тепло 1027.6 962.9
15 22.03 Ю 2
{4}
н/о н/о +16.3 -0.1 33 +17 +17 тепло 1027.3 962.6
16 22.03 Ю 2
{3}
н/о н/о +15.7 -0.1 34 +16 +16 тепло 1027.1 962.3
17 22.03 Ю 2
{3}
н/о н/о +14.9 -1.4 33 +15 +15 тепло 1027.0 962.0
18 22.03 Ю 1
{4}
н/о ясно +12.8 +0.4 43 +14 +14 тепло 1027.6 962.1 +16.6
19 22.03 штиль 0
{1}
н/о н/о +10.9 +1.0 50 +11 +11 тепло 1028.2 962.2
20 22.03 Ю 1
{2}
н/о н/о +10.4 +0.4 50 +11 +11 тепло 1028.4 962.3
21 22.03 штиль 0
{2}
н/о н/о +8.8 -0.1 54 +8 +8 тепло 1028.9 962.4
22 22.03 З 1
{1}
н/о н/о +8.0 -0.3 56 +9 +9 тепло 1029.0 962.3
23 22.03 штиль 0
{1}
н/о н/о +7.3 -0.9 56 +7 +7 тепло 1029.2 962.3
00 23.03 штиль 0
{2}
н/о н/о +6.2 -1.0 60 +6 +6 по сезону 1029.7 962.5
01 23.03 ЮВ 1
{1}
н/о н/о +6.2 -1.6 57 +7 +7 тепло 1029.6 962.4
02 23.03 Ю 1
{1}
н/о н/о +5.3 -1.2 63 +6 +6 тепло 1029.6 962.2
03 23.03 ЮВ 1
{1}
н/о н/о +5.4 -1.5 61 +6 +6 тепло 1029.7 962.3
04 23.03 штиль 0
{1}
н/о н/о +4.3 -1.5 66 +4 +4 тепло 1029.9 962.2
05 23.03 ЮВ 1
{1}
н/о н/о +4.8 -1.5 64 +5 +5 тепло 1030.0 962.4
06 23.03 штиль 0
{1}
н/о н/о +4.4 -1.4 66 +4 +4 по сезону 1030.1 962.4 +4.1
07 23.03 штиль 0
{1}
н/о н/о +5.7 -0.2 66 +5 +5 тепло 1029.8 962.5
08 23.03 ЮЗ 1
{2}
н/о н/о +7.7 -0.2 57 +7 +7 тепло 1029.4 962.6
09 23.03 ЮЗ 1
{3}
н/о н/о +10.0 -1.2 46 +10 +10 тепло 1029.0 962.7
10 23.03 З 1
{2}
н/о н/о +12.8 -0.5 40 +13 +13 тепло 1028.1 962.5
11 23.03 З 2
{4}
н/о н/о +14.4 -0.9 35 +15 +15 тепло 1027.1 962.0
12 23.03 ЮЗ 2
{4}
н/о н/о +16.5 +0.9 35 +17 +17 тепло 1026.0 961.4
13 23.03 З 2
{4}
н/о н/о +17.8 +1.5 33 +18 +18 тепло 1025.1 960.9
14 23.03 С 1
{4}
н/о н/о +17.7 -1.8 26 +19 +19 тепло 1024.5 960.3
15 23.03 СЗ 2
{4}
н/о н/о +18.3 -1.6 26 +19 +19 тепло 1024.1 960.0
16 23.03 СВ 2
{3}
н/о н/о +18.2 -3.4 23 +19 +19 тепло 1024.0 959.9
17 23.03 СВ 1
{3}
н/о н/о +16.9 -4.4 23 +18 +18 тепло 1024.3 959.9
18 23.03 С 1
{4}
н/о ясно +13.2 -2.3 34 +14 +14 тепло 1025.3 960.0 +18.4
19 23.03 штиль 0
{2}
н/о н/о +11.8 -2.1 38 +12 +12 тепло 1025.9 960.3
20 23.03 СЗ 1
{2}
н/о н/о +11.4 -3.4 35 +12 +12 тепло 1026.4 960.6
21 23.03 ЮВ 1
{2}
н/о н/о +9.7 -2.6 42 +11 +11 тепло 1026.8 960.6
22 23.03 штиль 0
{2}
н/о н/о +9.3 -1.8 46 +9 +9 тепло 1026.5 960.2
23 23.03 СЗ 1
{2}
н/о н/о +8.2 -2.1 48 +9 +9 тепло 1026.4 959.9
00 24.03 СЗ 1
{2}
н/о н/о +7.6 0.0 59 +8 +8 тепло 1026.1 959.5
01 24.03 В 1
{2}
н/о н/о +6.7 +0.2 63 +6 +6 тепло 1025.9 959.1

 

Местоположение метеостанции Цюрих (Швейцария): широта 47.38 долгота 8.57 высота над уровнем моря 569 м.

В архиве по умолчанию представлена погода в Цюрихе за последнюю неделю. Архивные данные за месяц целиком и за предыдущие месяцы, начиная с января 2011 года, Вы можете получить, выбрав интересующий диапазон дат из раскрывающегося списка и нажав кнопку "Ввод!".


*Определитесь, кто Вы:
робот инопланетянин человек

Внимание! Время в таблицах - всемирное. Для получения местного времени необходимо прибавить поправку, которая равна 1 ч.

Смотрите также архив погоды в соседних городах и на ближайших метеорологических станциях:

Погода в Реккенхольце (Швейцария) (7 км)
Погода в Цюрих аэропорту (Швейцария) (12 км)
Погода на Легерне (Швейцария) (17 км)
Погода в Веденсвиле (Швейцария) (20 км)
Погода в Чаме (Швейцария) (23 км)
Погода в Тениконе (Швейцария) (27 км)
Погода в Хёрнли (Швейцария) (29 км)
Погода в Институте Пауля Шеррера (Швейцария) (31 км)
Погода в Мозене (Швейцария) (31 км)
Погода в Айнзидельне (Швейцария) (31 км)

Пояснения к столбцам:

Ветер - указаны скорость ветра в м/с - средняя за 10 мин, порывы в срок и между сроками (в фигурных скобках) и направление, откуда дует ветер: С - северный, СВ - северо-восточный, В - восточный, ЮВ - юго-восточный, Ю - южный, ЮЗ - юго-западный, З - западный, СЗ - северо-западный.
Видимость - горизонтальная дальность видимости в метрах или километрах. При видимости от 1 до 10 км при отсутствии осадков обычно наблюдается дымка, при ухудшении видимости до 1 км и менее - туман. В сухую погоду видимость может ухудшаться дымом, пылью или мглою.
Явления - указаны атмосферные явления, наблюдавшиеся в срок или в последний час перед сроком; фигурными скобками обозначены явления, наблюдавшиеся между сроками (за 1-3 часа до срока); квадратными скобками обозначены град или гололедные отложения с указанием их диаметра в мм.
Облачность - указаны через наклонную черту общая и нижняя облачность в баллах и высота нижней границы облаков в метрах; квадратными скобками обозначены формы облаков: Ci - перистые, Cs - перисто-слоистые, Cc - перисто-кучевые, Ac - высококучевые, As - высокослоистые, Sc - слоисто-кучевые, Ns - слоисто-дождевые, Cu - кучевые, Cb - кучево-дождевые. Подробнее классификацию облаков см. в Атласе облаков (PDF).
T - Температура воздуха - температура, измеренная на высоте 2 м над землей.
Td - Температура точки росы - температура, при понижении до которой содержащийся в воздухе водяной пар достигнет насыщения.
f - Относительная влажность воздуха - влажноcть воздуха, измеренная на высоте 2 м над землей.
Te - Эффективная температура - температура, которую ощущает одетый по сезону человек в тени. Характеристика душности погоды. При расчете учитывается влияние влажности воздуха и скорости ветра на теплоощущения человека.
Tes - Эффективная температура на солнце - температура, которую ощущает человек, с поправкой на солнечный нагрев. Характеристика знойности погоды. Зависит от высоты солнца над горизонтом, облачности и скорости ветра. Ночью, в пасмурную погоду, а также при ветре 12 м/с и более поправка равна нулю.
P - Атмосферное давление - приведенное к уровню моря атмосферное давление.
Po - Атмосферное давление - измеренное на уровне метеостанции атмосферное давление.
Tmin - Минимальная температура - минимум температуры воздуха на высоте 2 м над землей.
Tmax - Максимальная температура - максимум температуры воздуха на высоте 2 м над землей.
R - Количество осадков - Количество выпавших осадков за период времени, мм. При наведении курсора мыши на число - период времени, за который выпало указанное количество осадков.
R24 - Количество осадков - Количество выпавших осадков за 24 часа, мм.
S - Снежный покров - Высота снежного покрова, см. При наведении курсора мыши на число - состояние снежного покрова и степень покрытия местности в баллах.